Tracking 28356 objects as of 8-Dec-2023
HD Live streaming from Space Station
objects crossing your sky now

STARLINK-5399

Track STARLINK-5399 now!
10-day predictions
STARLINK-5399 is classified as:


NORAD ID: 54788
Int'l Code: 2022-175AG
Perigee: 545.9 km
Apogee: 547.8 km
Inclination: 53.2 °
Period: 95.4 minutes
Semi major axis: 6917 km
RCS: Unknown
Launch date: December 17, 2022
Source: United States (US)
Launch site: AIR FORCE EASTERN TEST RANGE (AFETR)
Your satellite tracking list
Your tracking list is empty




NASA's NSSDC Master Catalog

Two Line Element Set (TLE):
1 54788U 22175AG  23341.40670287  .00000999  00000-0  80819-4 0  9993
2 54788  53.2169 124.8491 0001381  87.2966 272.8184 15.08844806 55848
Source of the keplerian elements: AFSPC